This is the latest recevied weather packets stored in our database for station/object GW1596. If no packets are shown the sender has not sent any weather packets the latest 10 day(s).
| Time | Temp. | Humidity | Pressure | Rain* | Wind** | Luminosity | Snow |
|---|---|---|---|---|---|---|---|
| 1777469810 | 17.78° C | 95% | 1012.8 hPa | 10.41 mm | - | - | - |
| 1777469074 | 17.22° C | 96% | 1012.8 hPa | 10.41 mm | - | - | - |
| 1777467288 | 16.67° C | 98% | 1012.5 hPa | 10.41 mm | - | - | - |
| 1777466905 | 16.67° C | 98% | 1012.8 hPa | 10.41 mm | - | - | - |
| 1777465467 | 16.11° C | 98% | 1012.8 hPa | 10.41 mm | - | - | - |
| 1777464765 | 16.11° C | 99% | 1012.8 hPa | 10.41 mm | - | - | - |
| 1777464394 | 16.11° C | 99% | 1013.2 hPa | 10.41 mm | - | - | - |
| 1777462581 | 15.56° C | 99% | 1013.2 hPa | 7.87 mm | - | - | - |
| 1777453241 | 15° C | 98% | 1012.8 hPa | 0 mm | - | - | - |
| 1777452889 | 15° C | 98% | 1012.8 hPa | 0 mm | - | - | - |
| 1777452153 | 15° C | 98% | 1013.2 hPa | 0 mm | - | - | - |
| 1777448568 | 15.56° C | 98% | 1013.5 hPa | 0 mm | - | - | - |
| 1777448179 | 15° C | 98% | 1013.8 hPa | 0 mm | - | - | - |
| 1777445669 | 15.56° C | 98% | 1013.8 hPa | 0 mm | - | - | - |
| 1777445331 | 15.56° C | 98% | 1014.2 hPa | 0 mm | - | - | - |
| 1777443879 | 15.56° C | 98% | 1014.2 hPa | 0 mm | - | - | - |
| 1777442072 | 15.56° C | 97% | 1014.9 hPa | 0 mm | - | - | - |
| 1777441332 | 16.11° C | 97% | 1014.9 hPa | 0 mm | - | - | - |
| 1777438126 | 16.11° C | 97% | 1015.5 hPa | 0 mm | - | - | - |
| 1777436667 | 16.11° C | 97% | 1015.5 hPa | 0 mm | - | - | - |
| 1777433447 | 16.11° C | 97% | 1015.9 hPa | 12.7 mm | - | - | - |
| 1777431256 | 15.56° C | 96% | 1015.9 hPa | 12.7 mm | - | - | - |
| 1777430213 | 16.11° C | 96% | 1015.9 hPa | 12.7 mm | - | - | - |
| 1777428393 | 16.67° C | 95% | 1015.9 hPa | 12.7 mm | - | - | - |
| 1777421909 | 18.89° C | 85% | 1015.5 hPa | 12.7 mm | - | - | - |
* Rain since midnight (hover to see other rain measurements)
** Current wind speed in m/s (hover to see current wind gust speed)